Cloud_Cover
55 5 3 2 0 5 5 2 1 1 0 0 3 5 24 100 100 100 72 13 5 92 52 98 100 100 100 100 100 100 100 98 96 100 88 97 100 100 100 100 100 100 100
8 3 5 5 5 5 5 25 4 4 2 59 83 91 58 100 52 0 5 5 56 16 5 2 96 100 100 100 100 99 4 16 100 100 100 100 100 100 65 21 18 82 100
5 5 10 51 5 4 5 52 5 5 41 100 100 100 100 83 0 0 0 0 0 0 0 1 1 0 1 7 50 62 3 4 1 100 100 100 100 100 100 100 100 100 100
36 23 5 9 5 5 99 96 82 17 100 100 100 90 30 0 0 0 0 0 0 0 0 16 34 4 2 51 5 21 15 0 0 0 69 95 100 100 100 100 100 100 100
78 20 50 5 47 83 19 70 100 100 100 100 30 5 0 0 0 0 0 0 0 0 0 8 7 0 0 0 0 0 0 0 0 0 3 10 38 13 48 100 100 100 100
56 87 5 100 100 100 100 100 100 100 100 100 100 8 0 0 0 0 0 0 0 0 1 28 66 0 0 0 0 0 0 0 0 0 25 1 40 89 1 57 0 51 100
33 73 100 100 100 100 100 100 100 100 100 17 4 0 2 0 0 0 0 0 0 0 0 0 0 0 0 0 0 0 0 0 0 0 0 22 0 81 42 4 80 65 4
80 100 100 100 100 100 100 100 100 100 38 1 0 0 0 0 0 0 0 0 0 0 0 0 0 0 0 0 0 0 0 0 0 0 0 42 1 70 0 4 7 81 100
100 100 100 100 100 100 100 100 99 9 2 0 0 0 0 0 0 0 0 0 0 0 0 0 0 0 0 0 0 0 0 0 0 0 97 2 0 0 0 0 49 99 99
100 100 100 100 100 100 100 58 5 2 0 0 0 0 0 0 0 0 0 0 0 0 0 0 0 0 0 0 0 0 0 0 0 0 0 11 0 0 0 0 0 2 91
100 100 100 100 100 100 94 4 0 0 0 0 0 0 0 3 83 0 0 0 0 0 0 0 0 0 0 0 0 0 0 0 0 0 0 0 0 0 0 0 0 0 5
100 100 100 99 100 16 5 1 0 0 0 0 0 0 94 12 0 0 0 2 10 0 0 0 0 0 0 0 0 0 0 0 0 0 0 0 0 0 0 0 0 0 0
100 100 92 48 11 2 0 0 79 21 0 0 0 0 7 0 99 4 0 0 0 0 40 61 0 0 0 0 0 0 0 0 0 0 2 1 0 0 0 0 0 0 0
100 82 8 1 2 0 0 0 0 0 0 25 93 0 0 0 0 0 0 0 0 0 1 0 0 4 4 4 2 0 0 0 0 0 0 34 4 0 1 0 0 0 2
87 7 4 1 0 0 0 0 0 0 0 0 0 0 0 0 0 0 0 0 0 0 0 0 0 0 0 0 0 0 0 0 0 0 0 5 3 0 1 4 5 2 1
19 12 76 0 0 0 0 0 0 0 0 0 0 0 0 0 0 0 0 0 0 0 0 0 0 0 0 0 0 2 0 3 4 2 0 0 5 5 5 5 1 0 0
4 30 4 9 0 0 0 0 0 0 0 0 0 0 1 5 4 0 0 0 0 0 0 5 3 4 4 0 0 0 0 5 0 6 8 0 0 4 5 5 5 5 0
0 17 33 71 13 0 0 0 0 0 0 0 0 2 5 5 2 3 5 0 4 5 5 2 4 5 4 0 0 0 0 4 4 62 27 5 5 58 6 5 5 5 7
94 99 83 98 42 18 1 0 0 1 4 5 5 5 5 4 5 5 5 5 5 5 5 5 3 3 5 5 3 10 5 14 63 75 87 84 18 3 27 52 5 5 5
1 0 0 0 61 48 1 1 2 5 5 5 5 5 5 5 5 20 5 56 61 5 26 5 5 5 5 5 5 14 94 35 16 28 34 27 82 92 38 15 78 63 4
0 0 0 0 0 0 0 5 5 5 50 62 34 63 9 86 11 5 11 55 28 4 0 0 3 5 5 5 5 5 5 5 5 5 20 26 29 5 8 53 5 6 24
0 0 0 5 5 5 14 52 82 95 81 50 90 47 82 5 5 5 5 2 0 3 2 2 2 5 5 5 5 5 2 5 5 5 14 53 5 12 5 8 7 5 5
0 3 5 5 5 14 5 5 3 5 7 72 80 100 83 58 38 5 27 5 5 5 7 12 3 3 4 5 5 7 16 3 4 16 72 27 5 84 100 100 100 97 28
3 5 5 1 5 5 5 4 5 5 5 12 61 48 5 23 96 96 95 39 5 5 5 5 5 5 1 3 5 4 12 16 52 48 5 5 5 52 34 96 96 94 100
0 0 3 5 6 5 5 8 48 100 87 32 69 100 100 100 100 100 92 8 34 14 7 10 14 14 8 41 55 57 23 11 5 76 13 7 100 62 10 50 99 93 100
1 5 5 5 5 6 5 29 54 100 100 100 100 100 100 100 90 84 36 38 38 100 100 76 22 33 99 92 28 28 62 100 100 100 100 100 100 8 45 54 52 100 100